Location: ?p Thanh B�nh
(16.5833°N, 107.5333°E)
Time: 05:05:04
(UTC+00:00)

SL-19 R/B - Pass Details

Date: 29 October 2020
Orbit: 358 x 808 km, 99.4° (Epoch: 29 November)

Event Time Altitude Azimuth Distance (km) Brightness Sun altitude
Rises 21:41:29 0° 5° (N) 2,244 7.4 -16.1°
Reaches altitude 10° 21:43:22 10° 359° (N) 1,429 6.3 -15.7°
Maximum altitude 21:46:17 47° 284° (WNW) 563 3.9 -15.0°
Drops below altitude 10° 21:49:32 10° 208° (SSW) 1,594 6.5 -14.2°
Sets 21:51:45 0° 203° (SSW) 2,545 7.6 -13.7°
